Back to catalog

OPS 3367 A

AliveNavigationSSO
NORAD 734·PAYLOAD·🇺🇸 United States

Launched Jan 19, 1964 from Vandenberg Space Force Base

Loading…

Next Passes (next 24 hours)

TLE

FreshSource: Space-Track

Epoch: Sep 14, 2026, 06:15 UTC

1 00734U 64002B   26257.26062600  .00000059  00000-0  41481-4 0  9996
2 00734  98.9804 190.1607 0013455 289.9099  70.0632 14.29719916261491

Track OPS 3367 A in real time with AllMySat

Download on the App Store